Theta_e
335 339 347 346 343 341 344 344 345 344 342 343 346 347 347 347 347 347 347 348 348 347 347 347 346 346 344 343 343 342 341 341 341 341 341 341 341 341 342 341 340 336 341
337 341 346 346 342 341 343 343 345 345 341 342 342 345 346 346 346 345 346 346 346 345 345 345 344 343 342 342 341 340 339 339 339 339 338 338 339 338 339 338 339 333 339
338 340 343 345 343 342 343 343 346 344 340 340 341 341 341 342 342 342 343 344 343 341 342 343 343 341 341 340 338 338 337 337 337 335 335 329 331 335 336 336 338 338 338
338 339 341 343 343 342 342 343 345 343 340 338 339 340 340 339 338 337 339 341 340 340 341 342 341 340 339 338 338 337 336 336 334 333 328 327 328 335 337 338 337 337 335
336 338 340 343 343 342 342 342 343 342 340 339 338 337 338 338 339 338 338 341 341 340 339 340 340 339 338 337 337 336 335 334 331 327 326 327 325 334 336 335 334 335 336
334 336 340 344 344 342 343 342 342 342 340 339 338 337 337 338 338 338 336 336 338 338 338 339 339 338 337 336 336 335 334 332 328 322 323 326 325 333 335 334 333 335 335
331 334 339 343 343 343 342 341 341 340 341 340 339 339 339 339 338 338 337 336 337 335 336 338 338 336 336 335 334 332 331 329 322 321 322 325 326 334 335 333 333 334 333
332 333 337 336 339 341 341 341 341 340 340 341 339 337 339 341 339 338 337 336 335 334 335 334 334 334 333 333 332 330 328 326 322 321 321 322 332 333 334 332 333 331 330
332 332 333 336 336 335 337 338 338 339 340 340 340 339 338 339 339 338 337 336 334 333 333 331 331 332 332 331 329 328 326 324 318 319 322 324 333 333 331 330 330 329 327
331 330 330 331 334 334 333 332 334 335 337 336 334 331 330 332 333 333 331 334 333 332 331 330 331 331 329 328 326 324 322 321 317 318 320 323 331 330 330 328 328 327 325
330 329 328 328 330 332 331 328 329 330 331 329 327 324 322 323 325 327 328 332 333 331 329 328 327 326 324 325 324 322 319 316 316 317 319 329 331 330 329 327 328 326 324
326 328 327 327 327 332 335 328 328 328 324 322 320 319 320 320 322 324 323 327 329 328 330 328 326 322 318 313 312 316 313 314 315 316 317 328 329 327 326 327 325 324 323
326 327 327 326 326 332 334 333 331 324 321 320 318 318 318 318 318 318 318 317 316 317 316 316 315 314 313 312 311 311 313 313 313 314 317 325 327 325 324 322 322 321 321
325 327 327 326 326 329 332 332 330 326 320 319 318 318 317 316 315 314 314 313 313 313 313 312 312 313 312 312 311 311 311 311 311 312 314 319 324 325 324 322 321 320 321
324 325 326 326 325 328 330 330 328 327 320 319 319 318 317 316 314 314 313 312 312 312 312 311 311 311 311 311 311 310 310 310 310 311 310 313 319 323 325 324 324 323 322
325 324 326 326 326 327 328 329 324 323 322 320 318 319 318 317 315 314 313 312 311 311 311 311 311 310 310 309 310 309 309 309 309 309 309 309 316 320 323 325 326 325 326
325 326 326 326 327 326 327 329 327 324 323 321 321 320 319 317 316 314 313 312 312 311 311 310 309 309 309 309 308 308 308 308 308 308 309 309 310 314 317 322 324 325 327
324 324 327 329 327 326 326 327 328 326 325 324 325 327 322 321 317 315 313 312 312 311 310 308 308 307 307 306 306 307 306 306 307 307 307 308 308 309 312 317 320 322 324
324 324 325 326 327 327 328 329 328 328 327 328 329 328 324 322 321 320 318 314 313 311 309 308 307 306 305 306 306 306 306 305 306 307 306 306 307 309 310 313 314 314 317
324 324 325 325 326 327 328 327 329 328 329 329 328 327 325 323 321 320 318 317 314 310 308 307 307 307 306 304 305 305 304 304 304 304 304 305 306 306 306 308 308 309 312
321 323 323 323 323 325 322 324 327 326 327 327 327 327 326 325 322 320 319 317 316 314 311 311 310 310 309 307 307 307 303 303 302 302 302 304 303 305 306 306 307 305 307
321 323 324 323 323 324 325 322 323 324 327 329 328 327 327 326 323 321 319 317 316 313 311 311 310 308 308 307 306 303 300 303 303 302 301 301 303 303 303 303 304 303 305
316 320 322 323 323 324 325 321 319 321 325 326 325 325 325 326 324 322 320 318 316 315 314 312 311 309 307 305 307 307 302 301 301 304 301 300 301 302 302 302 303 303 303
310 315 320 321 322 323 323 322 322 322 321 322 322 322 323 325 325 324 322 320 318 316 314 314 311 311 309 307 305 306 305 306 303 301 304 300 302 302 303 303 301 301 301
303 307 311 315 317 320 322 324 322 322 322 319 320 323 324 324 325 323 322 321 319 317 317 314 311 311 311 310 307 305 304 303 303 301 299 301 302 302 303 302 301 300 300
303 303 304 304 306 314 320 322 322 322 319 318 321 321 323 323 322 322 321 321 319 317 315 315 314 313 311 310 309 308 306 303 301 300 298 299 299 301 301 301 301 297 296
Wind_Speed
4 4 10 12 11 10 9 10 11 15 15 14 15 16 16 17 17 16 16 18 20 20 20 20 21 21 21 22 22 21 21 21 20 21 20 20 19 19 18 16 14 12 19
7 5 10 12 11 10 10 10 15 15 15 14 15 16 17 16 17 18 16 15 18 20 18 19 20 19 20 19 19 19 18 18 17 17 16 14 17 16 17 17 15 12 17
7 6 7 13 12 11 11 9 13 15 15 15 15 15 15 14 16 16 15 16 16 17 17 17 18 18 18 18 18 17 17 18 18 16 15 6 10 16 16 15 16 18 17
8 6 6 12 13 12 11 10 13 14 13 15 15 15 15 16 13 13 15 14 15 16 17 17 18 17 17 17 18 18 18 19 18 15 7 7 7 16 18 18 17 18 17
7 6 6 11 12 12 12 11 11 13 12 14 14 15 15 15 14 13 13 13 16 17 17 15 16 17 17 16 17 17 17 18 17 11 7 6 5 13 17 17 15 16 14
6 7 8 12 13 12 11 12 11 11 12 13 13 14 14 12 15 13 13 13 14 16 14 15 17 15 15 16 16 17 16 16 12 7 7 8 6 13 15 16 16 15 16
6 5 6 11 12 12 11 11 12 10 10 12 12 12 11 12 15 14 14 13 14 15 15 16 15 15 15 15 15 15 14 14 7 6 6 6 6 14 15 15 15 16 17
9 5 5 9 10 10 10 10 10 11 9 11 11 10 10 15 14 14 14 13 13 14 14 15 15 15 14 14 15 14 13 12 7 6 6 5 9 12 15 15 14 15 15
6 6 5 6 7 9 9 9 8 10 10 9 11 11 10 12 11 11 12 12 13 13 13 14 13 13 13 13 13 12 12 11 6 4 5 4 11 14 14 13 12 13 13
5 5 5 4 5 5 6 8 8 9 10 9 8 8 9 9 10 9 9 10 11 12 13 13 14 13 12 11 11 10 10 10 6 5 4 4 9 11 11 11 10 10 11
7 5 5 4 5 5 5 5 7 7 8 8 7 8 7 4 5 6 6 9 9 9 11 12 12 11 10 10 9 9 8 3 4 4 3 8 9 10 10 9 9 9 9
11 9 5 5 5 5 4 5 4 5 4 4 5 5 3 4 4 5 6 8 8 7 8 9 9 8 6 3 3 6 3 4 3 3 3 9 8 8 8 8 6 6 6
12 9 8 6 5 8 5 3 2 2 2 3 4 4 4 3 4 3 3 2 3 5 3 4 4 4 4 3 3 3 3 3 2 2 4 7 6 5 5 3 3 4 3
12 11 8 7 6 7 5 3 4 4 3 2 4 5 4 2 3 2 2 1 2 1 3 3 2 3 4 4 3 1 2 2 2 2 3 7 7 5 4 3 2 3 4
12 8 8 7 6 7 8 3 3 4 3 3 3 4 4 3 3 2 2 1 0 1 1 1 2 2 2 3 3 3 2 2 2 1 2 7 7 7 7 6 4 5 4
9 9 9 9 8 8 9 7 4 4 4 4 3 4 5 4 4 3 2 2 2 1 0 0 1 2 3 2 2 2 3 3 3 3 3 4 7 7 8 8 9 8 8
8 9 11 11 9 9 10 9 6 5 5 5 4 6 6 5 5 5 3 3 3 2 1 0 1 2 2 3 3 3 2 3 3 4 3 3 5 8 8 10 10 11 13
8 10 10 9 11 10 8 8 6 5 5 5 5 5 7 7 6 5 4 4 3 2 1 0 0 1 2 2 3 4 3 3 5 5 4 4 4 3 6 10 11 12 14
11 10 10 10 12 12 10 8 7 7 6 6 6 5 7 8 7 5 5 4 5 3 2 2 2 2 2 2 4 4 4 4 5 4 6 5 5 4 3 6 9 10 12
9 9 11 10 11 10 7 6 5 5 5 5 5 5 7 6 7 6 4 4 4 3 3 3 4 3 3 2 3 5 4 4 4 5 5 3 5 5 4 4 4 4 11
8 10 11 12 10 8 3 4 4 4 4 3 4 7 7 6 7 7 4 4 4 5 7 5 3 4 3 2 2 3 3 4 4 4 4 4 4 4 4 4 3 3 5
13 13 11 11 10 9 6 3 3 4 3 3 5 5 8 7 7 6 6 5 5 3 4 4 4 1 1 3 1 0 4 5 3 2 2 2 3 2 4 3 4 4 4
11 12 12 12 11 10 9 4 3 3 2 3 2 3 5 8 8 8 8 6 6 5 5 5 6 7 3 2 4 2 2 3 3 1 2 2 2 2 3 3 3 4 5
12 7 10 9 9 8 8 7 8 8 8 4 4 4 5 8 9 9 10 9 8 6 7 7 5 5 4 4 1 5 3 2 3 4 2 2 3 4 4 3 4 5 5
6 7 6 7 7 8 9 10 8 9 6 4 3 5 5 5 6 7 9 9 9 7 7 7 5 5 4 3 4 2 2 2 3 5 3 3 2 3 3 3 3 3 4
5 5 6 7 6 6 8 11 13 12 8 6 6 5 4 4 4 6 6 5 5 5 5 4 4 6 5 4 3 3 4 3 2 3 3 4 3 3 3 3 3 3 3
Wind_Direction
171 191 134 113 99 97 83 87 97 92 84 83 77 83 83 80 80 77 76 75 74 73 74 76 79 76 76 76 75 74 71 67 65 63 61 61 60 61 58 58 58 56 58
139 160 130 112 103 103 86 88 97 92 86 85 86 82 80 81 82 73 71 81 80 77 76 79 79 79 79 77 74 73 71 70 68 61 58 49 59 59 55 50 53 56 61
131 140 125 119 116 118 101 94 105 99 91 94 94 87 89 87 90 85 76 75 71 77 71 80 81 79 78 76 73 69 66 61 58 56 51 41 55 61 64 60 58 67 68
129 120 122 123 123 125 110 95 104 99 100 99 100 92 90 84 81 86 78 79 84 82 81 77 80 78 74 73 72 68 63 60 58 53 39 41 46 61 62 66 62 65 62
120 121 134 127 125 127 116 104 97 102 101 102 95 96 94 94 95 92 95 92 82 77 72 76 86 80 78 74 71 70 66 61 54 45 35 41 37 61 67 66 58 61 62
125 132 141 135 132 129 119 117 103 104 113 101 104 104 101 97 100 91 99 95 86 82 79 83 81 80 77 76 75 73 68 63 54 39 32 25 28 70 70 67 61 62 69
130 141 140 140 135 133 127 124 117 107 89 116 113 103 106 106 102 95 95 90 84 87 82 80 81 79 77 76 74 72 68 63 54 45 36 35 51 62 75 67 69 66 67
138 142 135 137 135 132 130 125 122 120 101 118 109 96 83 107 106 104 100 94 93 91 84 80 79 80 78 76 75 71 66 59 46 39 30 15 50 75 75 68 70 70 65
127 131 129 135 139 134 130 128 124 121 109 95 107 99 86 82 92 95 98 100 98 93 86 78 75 82 79 77 75 69 63 58 54 38 27 15 58 64 62 64 68 68 64
130 134 134 134 131 133 135 133 126 120 112 107 99 92 89 91 90 86 85 97 96 94 88 80 77 84 80 76 71 65 58 52 49 43 25 12 44 64 62 62 66 68 63
165 143 138 148 144 138 137 136 126 121 121 114 102 92 84 94 95 95 98 94 95 92 96 87 81 80 76 74 76 70 63 46 49 38 19 21 72 74 67 62 65 69 67
178 180 163 158 159 148 145 139 130 123 121 122 124 112 102 109 111 106 93 85 81 75 74 79 70 63 63 58 44 52 56 57 52 34 11 18 46 58 66 57 71 69 67
185 186 179 165 162 168 153 150 133 123 139 138 142 127 119 99 88 88 95 81 85 61 53 53 44 47 55 72 54 64 55 47 39 21 359 17 30 46 49 57 65 34 34
188 191 178 164 160 172 173 173 150 147 163 163 160 148 138 128 119 120 104 88 61 65 96 60 40 42 53 51 52 41 47 48 27 4 342 356 2 6 358 339 345 343 325
190 186 179 162 169 171 182 185 168 160 169 188 175 171 157 161 165 153 162 154 114 52 89 55 29 22 28 26 26 22 350 352 354 348 331 336 335 327 317 302 288 289 288
183 185 174 178 175 165 186 184 176 165 169 180 192 191 189 178 180 182 187 201 186 174 117 124 345 0 350 359 337 348 337 332 318 306 305 312 318 309 303 301 301 297 284
188 183 181 182 177 178 184 191 185 189 177 182 193 196 200 190 191 185 194 214 218 194 184 98 6 10 344 338 307 309 304 292 295 294 281 275 295 302 299 293 294 298 304
174 180 180 184 186 185 186 185 192 188 186 199 197 193 195 196 193 181 192 218 211 197 182 212 226 286 276 276 288 291 289 285 275 269 275 274 277 290 300 298 299 302 300
187 182 183 183 187 191 190 190 189 190 198 206 200 197 196 191 189 189 194 196 185 191 192 203 234 207 258 271 274 279 272 266 262 265 261 261 270 267 277 298 314 308 302
191 189 190 186 188 187 184 180 170 177 196 193 194 198 189 189 184 188 189 197 180 176 207 208 221 213 229 249 298 284 264 256 254 249 270 279 261 267 277 274 276 287 298
190 191 193 188 189 177 159 167 169 211 201 202 197 195 187 186 185 185 194 186 185 189 205 193 201 230 264 178 306 308 299 261 261 263 239 244 275 275 267 267 276 287 292
203 198 200 204 191 194 186 177 159 162 179 195 201 206 197 190 183 190 190 198 191 203 208 198 181 193 237 181 148 155 328 329 355 332 299 281 311 316 304 294 286 265 275
205 195 196 202 196 193 190 140 104 97 89 157 175 194 201 193 190 192 197 187 192 187 219 201 190 187 208 206 216 190 270 255 324 315 15 315 336 299 286 301 298 310 311
213 189 191 187 189 190 179 181 190 205 215 200 188 204 204 206 209 199 194 194 199 199 207 215 188 198 170 219 192 225 244 151 257 320 321 346 322 288 298 323 336 326 335
175 198 185 170 172 168 179 189 190 202 208 182 188 204 216 205 200 207 205 197 202 205 220 202 189 200 202 222 189 176 207 216 222 228 275 308 328 257 285 308 305 307 338
143 167 171 174 187 178 178 194 195 203 190 183 210 213 210 209 194 214 210 201 200 189 194 204 212 208 210 211 209 197 194 205 196 219 243 256 232 299 305 298 311 336 3